EW1970 Weather Reports


Display with metric or nautical units.
time (UTC)temp
F
wind
direction
speed
MPH
gust
MPH
rain 1hr
in
rain 24hr
in
rain mn
in
humidity
%
barometer
mb
20260903103027 80 237 1.0 4.0 0.00 0.00 0.00 85 1013.7
20260903101511 79 190 1.0 6.0 0.00 0.00 0.00 85 1013.7
20260903100028 80 88 1.0 9.0 0.00 0.00 0.00 84 1013.6
20260903094528 80 283 1.0 6.0 0.00 0.00 0.00 84 1013.7
20260903093010 80 235 0.0 4.0 0.00 0.00 0.00 83 1013.8
20260903091507 80 228 1.0 6.0 0.00 0.00 0.00 83 1013.9
20260903090019 80 122 2.0 6.0 0.00 0.00 0.00 83 1013.9
20260903084529 80 119 1.0 6.0 0.00 0.00 0.00 83 1014.0
20260903083030 80 229 1.0 3.0 0.00 0.00 0.00 83 1014.0
20260903081509 80 219 1.0 6.0 0.00 0.00 0.00 82 1014.0
20260903080011 80 265 0.0 3.0 0.00 0.00 0.00 82 1014.0
20260903074518 80 298 0.0 4.0 0.00 0.00 0.00 81 1014.0
20260903073026 80 170 2.0 7.0 0.00 0.00 0.00 80 1014.1
20260903071528 80 247 1.0 4.0 0.00 0.00 0.00 79 1014.2
20260903070011 81 188 0.0 5.0 0.00 0.00 0.00 77 1014.4
20260903064516 81 145 0.0 4.0 0.00 0.00 0.00 77 1014.4
20260903063021 81 123 0.0 2.0 0.00 0.00 0.00 76 1014.5
20260903061528 81 51 0.0 2.0 0.00 0.00 0.00 76 1014.5
20260903060032 80 157 0.0 5.0 0.00 0.00 0.00 77 1014.5
20260903054522 80 156 0.0 6.0 0.00 0.00 0.00 78 1014.5
20260903053020 80 123 1.0 7.0 0.00 0.00 0.00 78 1014.3
20260903051528 80 130 0.0 4.0 0.00 0.00 0.00 78 1014.5
20260903050029 80 79 1.0 4.0 0.00 0.00 0.00 78 1014.3
20260903044535 80 38 0.0 5.0 0.00 0.00 0.00 77 1014.3
20260903043017 81 311 0.0 6.0 0.00 0.00 0.00 76 1014.3
20260903041524 81 161 0.0 8.0 0.00 0.00 0.00 74 1014.3
20260903040031 82 238 0.0 2.0 0.00 0.00 0.00 72 1014.3
20260903034536 83 123 0.0 6.0 0.00 0.00 0.00 69 1014.3
20260903033038 84 142 1.0 7.0 0.00 0.00 0.00 65 1014.4
20260903031522 85 169 1.0 5.0 0.00 0.00 0.00 62 1014.0
20260903030030 86 90 0.0 3.0 0.00 0.00 0.00 59 1013.7
20260903024531 86 148 2.0 9.0 0.00 0.00 0.00 61 1013.3
20260903023031 85 91 0.0 0.0 0.00 0.00 0.00 62 1012.8
20260903021532 86 64 0.0 1.0 0.00 0.00 0.00 60 1012.6
20260903020026 86 38 0.0 1.0 0.00 0.00 0.00 59 1012.3
20260903014503 87 185 0.0 2.0 0.00 0.00 0.00 58 1012.1
20260903013012 87 163 0.0 1.0 0.00 0.00 0.00 57 1012.1
20260903011515 87 162 0.0 2.0 0.00 0.00 0.00 57 1012.1
20260903010025 88 28 0.0 2.0 0.00 0.00 0.00 58 1012.0
20260903004535 88 142 0.0 2.0 0.00 0.00 0.00 58 1012.0
20260903003009 89 122 0.0 3.0 0.00 0.00 0.00 56 1012.1
20260903001516 90 157 0.0 4.0 0.00 0.00 0.00 53 1012.0
20260903000020 92 84 0.0 3.0 0.00 0.00 0.00 51 1012.3
20260902234530 93 209 1.0 4.0 0.00 0.00 0.00 51 1012.2
20260902233029 93 23 0.0 2.0 0.00 0.00 0.00 50 1011.8
20260902231517 94 310 2.0 7.0 0.00 0.00 0.00 45 1011.8
20260902230016 93 76 0.0 2.0 0.00 0.00 0.00 50 1011.8
20260902224527 94 78 0.0 2.0 0.00 0.00 0.00 50 1011.6
20260902223032 92 68 0.0 2.0 0.00 0.00 0.00 56 1011.6
20260902221534 91 348 0.0 0.0 0.00 0.00 0.00 58 1011.7
20260902220018 91 348 0.0 0.0 0.00 0.00 0.00 57 1011.8
20260902214528 93 348 0.0 0.0 0.00 0.00 0.00 49 1011.8
20260902213030 93 348 0.0 1.0 0.00 0.00 0.00 49 1011.9
20260902211531 94 317 0.0 2.0 0.00 0.00 0.00 48 1012.0
20260902210049 95 333 0.0 2.0 0.00 0.00 0.00 45 1012.1
20260902204516 96 323 0.0 2.0 0.00 0.00 0.00 44 1012.3
20260902203024 96 28 0.0 6.0 0.00 0.00 0.00 44 1012.6
20260902201537 96 211 0.0 3.0 0.00 0.00 0.00 40 1012.8
20260902200034 102 149 1.0 3.0 0.00 0.00 0.00 36 1013.0
20260902194538 102 219 2.0 8.0 0.00 0.00 0.00 36 1013.3
20260902193035 101 225 0.0 6.0 0.00 0.00 0.00 38 1013.6
20260902191529 102 111 1.0 3.0 0.00 0.00 0.00 37 1013.8
20260902190037 100 86 1.0 4.0 0.00 0.00 0.00 37 1014.1
20260902184512 98 281 0.0 3.0 0.00 0.00 0.00 39 1014.4
20260902183018 101 302 1.0 7.0 0.00 0.00 0.00 37 1014.6
20260902181513 101 309 1.0 5.0 0.00 0.00 0.00 38 1014.9
20260902180007 100 158 1.0 6.0 0.00 0.00 0.00 41 1015.3
20260902174509 99 327 0.0 6.0 0.00 0.00 0.00 40 1015.6
20260902173017 98 244 1.0 4.0 0.00 0.00 0.00 41 1015.9
20260902171521 98 36 2.0 8.0 0.00 0.00 0.00 42 1016.0
20260902170017 97 249 1.0 4.0 0.00 0.00 0.00 45 1016.2
20260902164507 96 248 0.0 4.0 0.00 0.00 0.00 46 1016.3
20260902163012 94 232 1.0 6.0 0.00 0.00 0.00 46 1016.4
20260902161524 93 296 3.0 6.0 0.00 0.00 0.00 48 1016.4
20260902160022 92 215 3.0 8.0 0.00 0.00 0.00 49 1016.3
20260902154528 90 237 2.0 7.0 0.00 0.00 0.00 53 1016.4
20260902153015 88 227 1.0 4.0 0.00 0.00 0.00 57 1016.4
20260902151520 87 290 3.0 7.0 0.00 0.00 0.00 59 1016.5
20260902150027 86 270 0.0 3.0 0.00 0.00 0.00 65 1016.5
20260902144534 84 312 1.0 5.0 0.00 0.00 0.00 66 1016.5
20260902143028 84 219 1.0 4.0 0.00 0.00 0.00 69 1016.6
20260902141518 83 249 1.0 7.0 0.00 0.00 0.00 72 1016.5
20260902140033 81 261 2.0 8.0 0.00 0.00 0.00 74 1016.3
20260902134534 79 279 0.0 2.0 0.00 0.00 0.00 78 1016.2
20260902133029 77 223 0.0 1.0 0.00 0.00 0.00 83 1016.2
20260902131542 76 252 0.0 0.0 0.00 0.00 0.00 83 1016.1
20260902130020 75 252 0.0 0.0 0.00 0.00 0.00 84 1016.0
20260902124527 75 252 0.0 0.0 0.00 0.00 0.00 84 1015.8
20260902123007 75 252 0.0 0.0 0.00 0.00 0.00 84 1015.8
20260902121514 75 252 0.0 0.0 0.00 0.00 0.00 83 1015.6
20260902120018 75 252 0.0 0.0 0.00 0.00 0.00 83 1015.5
20260902114524 75 252 0.0 0.0 0.00 0.00 0.00 82 1015.5
20260902113004 76 252 0.0 0.0 0.00 0.00 0.00 81 1015.5
20260902111515 76 252 0.0 0.0 0.00 0.00 0.00 81 1015.4
20260902110015 76 252 0.0 0.0 0.00 0.00 0.00 80 1015.3
20260902104521 77 252 0.0 0.0 0.00 0.00 0.00 79 1015.4